Swanton, OH

2:25 PM EST on December 07, 2016 (GMT -0500)
Toledo Express

Weather History for KTOL - January, 2014

Change the Weather History Date:

Sunday, January 19, 2014

  Actual Average Record
Temperature  
Mean Temperature 20 °F 25 °F  
Max Temperature 30 °F 32 °F 65 °F (1907)
Min Temperature 10 °F 18 °F -18 °F (1994)
Degree Days  
Heating Degree Days 45 40  
Month to date heating degree days 870 751  
Since 1 July heating degree days 3369 3076  
Cooling Degree Days 0 0  
Month to date cooling degree days 0 0  
Year to date cooling degree days 0 0  
Moisture  
Dew Point 15 °F    
Average Humidity 80    
Maximum Humidity 92    
Minimum Humidity 68    
Precipitation  
Precipitation T in 0.06 in 0.50 in (1956)
Month to date precipitation 2.70 1.32  
Year to date precipitation 2.70 1.32  
Snow  
Snow T in 0.40 in - ()
Month to date snowfall 29.3 6.9  
Since 1 July snowfall 41.0 16.4  
Snow Depth 4.00 in    
Sea Level Pressure  
Sea Level Pressure 29.73 in    
Wind  
Wind Speed 13 mph (SW)    
Max Wind Speed 30 mph    
Max Gust Speed 40 mph    
Visibility 9 miles    
Events Snow    
T = Trace of Precipitation, MM = Missing Value Source: NWS Daily Summary

Daily Weather History Graph

Daily Weather History Graph

Search for Another Location

Airport or City:

Trip Planner

Search our weather history database for the weather conditions in past years. The results will help you decide how hot, cold, wet, or windy it might be!

Date:

Astronomy

Jan. 19, 2014 Rise Set
Actual Time 7:57 AM EST 5:34 PM EST
Civil Twilight 7:27 AM EST 6:05 PM EST
Nautical Twilight 6:53 AM EST 6:39 PM EST
Astronomical Twilight 6:20 AM EST 7:12 PM EST
Moon 9:15 PM EST (1/19) 9:24 AM EST (1/19)
Length of Visible Light 10h 38m
Length of Day
9h 37m
Waning Gibbous, 89% of the Moon is Illuminated
Jan 19
Waning Gibbous
Jan 24
Last Quarter
Jan 30
New
Feb 6
First Quarter
Feb 14
Full

Hourly Weather History & Observations

Time (EST) Temp. Windchill Dew Point Humidity Pressure Visibility Wind Dir Wind Speed Gust Speed Precip Events Conditions
12:06 AM 15.8 °F 10.2 °F 14.0 °F 93% 29.78 in 4.0 mi ESE 3.5 mph - 0.00 in Snow Light Snow
12:52 AM 12.9 °F - 12.0 °F 96% 29.81 in 6.0 mi Calm Calm - 0.00 in   Mostly Cloudy
1:52 AM 17.1 °F - 14.0 °F 88% 29.82 in 9.0 mi Calm Calm - 0.00 in Snow Light Snow
2:52 AM 16.0 °F - 14.0 °F 92% 29.81 in 9.0 mi Calm Calm - 0.00 in Snow Light Snow
3:04 AM 15.8 °F - 14.0 °F 93% 29.76 in 8.0 mi Calm Calm - 0.00 in Snow Light Snow
3:52 AM 10.0 °F 3.6 °F 9.0 °F 95% 29.81 in 8.0 mi WSW 3.5 mph - 0.00 in Snow Light Snow
4:17 AM 12.2 °F 4.3 °F 10.4 °F 92% 29.77 in 9.0 mi WSW 4.6 mph - 0.00 in Snow Light Snow
4:52 AM 12.9 °F 3.8 °F 10.9 °F 92% 29.81 in 9.0 mi WSW 5.8 mph - 0.00 in Snow Light Snow
5:52 AM 17.1 °F 5.8 °F 15.1 °F 92% 29.82 in 8.0 mi WSW 9.2 mph - 0.00 in Snow Light Snow
6:41 AM 14.0 °F 0.5 °F 10.4 °F 86% 29.78 in 9.0 mi WSW 11.5 mph - 0.00 in Snow Light Snow
6:52 AM 12.9 °F -0.9 °F 10.9 °F 92% 29.82 in 9.0 mi WSW 11.5 mph - 0.00 in Snow Light Snow
7:41 AM 15.8 °F 2.7 °F 12.2 °F 86% 29.78 in 10.0 mi WSW 11.5 mph - N/A   Mostly Cloudy
7:52 AM 16.0 °F 2.3 °F 12.9 °F 88% 29.81 in 10.0 mi SW 12.7 mph - N/A   Overcast
8:52 AM 18.0 °F 6.1 °F 15.1 °F 88% 29.80 in 10.0 mi SW 10.4 mph - N/A   Overcast
9:33 AM 19.4 °F 6.0 °F 15.8 °F 86% 29.76 in 10.0 mi WSW 13.8 mph 23.0 mph N/A   Overcast
9:52 AM 19.9 °F 4.8 °F 16.0 °F 85% 29.80 in 10.0 mi SW 18.4 mph 27.6 mph N/A   Overcast
10:52 AM 21.0 °F 5.4 °F 15.1 °F 78% 29.78 in 9.0 mi SW 20.7 mph 32.2 mph N/A   Mostly Cloudy
11:03 AM 21.2 °F 4.9 °F 15.8 °F 80% 29.74 in 8.0 mi SW 23.0 mph 32.2 mph 0.00 in Snow Blowing Snow
11:17 AM 21.2 °F 6.0 °F 15.8 °F 80% 29.74 in 9.0 mi SW 19.6 mph 32.2 mph 0.00 in   Scattered Clouds
11:52 AM 21.9 °F 6.5 °F 15.1 °F 75% 29.76 in 10.0 mi SW 20.7 mph 29.9 mph 0.00 in   Clear
12:52 PM 21.9 °F 4.2 °F 14.0 °F 72% 29.71 in 7.0 mi SW 28.8 mph 40.3 mph 0.00 in   Mostly Cloudy
1:52 PM 23.0 °F 8.7 °F 15.1 °F 72% 29.69 in 7.0 mi SW 18.4 mph 36.8 mph N/A   Clear
2:52 PM 25.0 °F 11.3 °F 17.1 °F 72% 29.68 in 10.0 mi SW 18.4 mph 29.9 mph N/A   Scattered Clouds
3:07 PM 24.8 °F 10.0 °F 17.6 °F 74% 29.65 in 10.0 mi WSW 21.9 mph 38.0 mph N/A   Mostly Cloudy
3:29 PM 26.6 °F 13.4 °F 17.6 °F 69% 29.65 in 10.0 mi SW 18.4 mph 29.9 mph N/A   Scattered Clouds
3:48 PM 24.8 °F 11.5 °F 17.6 °F 74% 29.65 in 10.0 mi WSW 17.3 mph 28.8 mph N/A   Mostly Cloudy
3:52 PM 26.1 °F 14.5 °F 18.0 °F 71% 29.68 in 10.0 mi SW 13.8 mph 28.8 mph N/A   Mostly Cloudy
4:32 PM 26.6 °F 14.3 °F 17.6 °F 69% 29.64 in 10.0 mi SW 16.1 mph 24.2 mph N/A   Scattered Clouds
4:52 PM 26.1 °F 14.5 °F 18.0 °F 71% 29.68 in 10.0 mi SW 13.8 mph 21.9 mph N/A   Partly Cloudy
5:52 PM 26.1 °F 13.6 °F 19.0 °F 75% 29.67 in 10.0 mi SW 16.1 mph 23.0 mph N/A   Clear
6:52 PM 27.0 °F 16.7 °F 19.0 °F 72% 29.66 in 10.0 mi SSW 11.5 mph 24.2 mph N/A   Clear
7:52 PM 27.0 °F 15.6 °F 19.0 °F 72% 29.65 in 10.0 mi SSW 13.8 mph - N/A   Clear
8:52 PM 27.0 °F 16.1 °F 19.0 °F 72% 29.65 in 10.0 mi SW 12.7 mph 21.9 mph N/A   Clear
9:52 PM 28.0 °F 16.1 °F 19.9 °F 72% 29.63 in 10.0 mi SW 16.1 mph 24.2 mph N/A   Clear
10:52 PM 28.9 °F 19.8 °F 21.0 °F 72% 29.60 in 10.0 mi SW 10.4 mph 23.0 mph N/A   Clear
11:52 PM 30.0 °F 20.0 °F 21.0 °F 69% 29.58 in 10.0 mi SW 12.7 mph 23.0 mph N/A   Clear